Date String (YYYY-MM-DD hh:mm:ss) UTC,Instrument flags,Ambient pressure (hPa),Sample flow (lpm),Bypass flow (lpm),Sample temperature (°C),Ambient temperature (°C),ASC tube jacket temperature (°C),LED temperature (°C),Box temperature (°C),Sample RH (%),Span deviation,Mass concentration (μg/m³),Mass concentration (μg/m³),Mass concentration (μg/m³)
DateTimeUTC,F1_M11,P_M11,Q1_M11,Q2_M11,T1_M11,T2_M11,T3_M11,T4_M11,T5_M11,U1_M11,ZSPAN_M11,X0_M11,X2_M11,X1_M11
2022-03-25 07:00:00,,0827.3,5.00,0.00,27.9,27.1,00.0,36.9,29.7,10.0,0000.0,0009.83,0003.97,0001.62
2022-03-25 07:01:00,,0827.4,5.01,0.00,27.9,27.1,00.0,36.9,29.7,10.2,0000.0,0009.71,0003.92,0001.63
2022-03-25 07:02:00,,0827.4,4.99,0.00,27.9,27.0,00.0,36.9,29.7,10.2,0000.0,0009.64,0003.88,0001.62
2022-03-25 07:03:00,,0827.4,4.99,0.00,27.9,27.0,00.0,36.9,29.7,10.2,0000.0,0009.57,0003.87,0001.61
2022-03-25 07:04:00,,0827.4,5.00,0.00,27.9,27.0,00.0,36.9,29.7,10.2,0000.0,0009.78,0003.94,0001.60
2022-03-25 07:05:00,,0827.4,5.02,0.00,27.9,27.0,00.0,36.9,29.7,10.2,0000.0,0010.10,0003.95,0001.61
2022-03-25 07:06:00,,0827.5,4.98,0.00,27.9,27.0,00.0,36.9,29.6,10.1,0000.0,0010.18,0003.94,0001.64
2022-03-25 07:07:00,,0827.6,5.00,0.00,27.9,26.9,00.0,36.9,29.6,10.1,0000.0,0009.93,0003.91,0001.64
2022-03-25 07:08:00,,0827.6,5.00,0.00,27.9,26.9,00.0,36.9,29.6,10.2,0000.0,0009.75,0003.92,0001.65
2022-03-25 07:09:00,,0827.8,4.99,0.00,27.9,26.9,00.0,36.9,29.6,10.3,0000.0,0010.18,0003.97,0001.66
2022-03-25 07:10:00,,0827.9,4.99,0.00,27.9,26.9,00.0,36.9,29.6,10.3,0000.0,0010.45,0003.99,0001.66
2022-03-25 07:11:00,,0828.1,5.00,0.00,27.9,26.9,00.0,36.9,29.7,10.5,0000.0,0010.58,0004.00,0001.64
2022-03-25 07:12:00,,0828.1,5.03,0.00,27.9,26.9,00.0,36.9,29.7,10.9,0000.0,0011.39,0003.97,0001.64
2022-03-25 07:13:00,,0828.2,4.99,0.00,27.9,26.9,00.0,36.9,29.7,11.4,0000.0,0011.58,0004.00,0001.64
2022-03-25 07:14:00,,0828.2,5.00,0.00,27.9,26.9,00.0,36.8,29.6,11.5,0000.0,0011.82,0004.02,0001.65
2022-03-25 07:15:00,,0828.1,4.99,0.00,27.8,26.9,00.0,36.8,29.6,11.7,0000.0,0011.80,0003.96,0001.66
2022-03-25 07:16:00,,0828.2,4.99,0.00,27.8,26.9,00.0,36.8,29.6,12.1,0000.0,0011.23,0003.90,0001.66
2022-03-25 07:17:00,,0828.2,4.98,0.00,27.8,26.9,00.0,36.8,29.7,12.6,0000.0,0011.00,0003.89,0001.65
2022-03-25 07:18:00,,0828.2,4.99,0.00,27.9,26.9,00.0,36.8,29.6,12.8,0000.0,0010.92,0003.84,0001.63
2022-03-25 07:19:00,,0828.2,5.01,0.00,27.8,26.9,00.0,36.8,29.6,13.0,0000.0,0010.88,0003.81,0001.63
2022-03-25 07:20:00,,0828.3,4.99,0.00,27.8,26.9,00.0,36.8,29.6,13.3,0000.0,0010.42,0003.74,0001.62
2022-03-25 07:21:00,,0828.2,5.01,0.00,27.8,26.9,00.0,36.8,29.6,13.3,0000.0,0009.92,0003.68,0001.62
2022-03-25 07:22:00,,0828.3,5.01,0.00,27.8,26.9,00.0,36.8,29.6,13.3,0000.0,0009.71,0003.66,0001.66
2022-03-25 07:23:00,,0828.3,4.99,0.00,27.8,26.9,00.0,36.8,29.6,13.4,0000.0,0008.96,0003.65,0001.67
2022-03-25 07:24:00,,0828.3,5.00,0.00,27.8,26.8,00.0,36.8,29.6,13.4,0000.0,0008.68,0003.59,0001.67
2022-03-25 07:25:00,,0828.4,5.01,0.00,27.8,26.8,00.0,36.8,29.6,13.3,0000.0,0008.24,0003.50,0001.66
2022-03-25 07:26:00,,0828.3,5.00,0.00,27.8,26.8,00.0,36.8,29.6,13.3,0000.0,0008.08,0003.45,0001.66
2022-03-25 07:27:00,,0828.4,5.00,0.00,27.8,26.8,00.0,36.8,29.6,13.4,0000.0,0008.06,0003.48,0001.64
2022-03-25 07:28:00,,0828.4,5.00,0.00,27.8,26.8,00.0,36.8,29.6,13.5,0000.0,0008.18,0003.50,0001.64
2022-03-25 07:29:00,,0828.5,5.00,0.00,27.8,26.8,00.0,36.8,29.6,13.6,0000.0,0008.21,0003.50,0001.66
2022-03-25 07:30:00,,0828.6,4.99,0.00,27.8,26.8,00.0,36.8,29.6,13.7,0000.0,0008.35,0003.52,0001.66
2022-03-25 07:31:00,,0829.0,5.00,0.00,27.8,26.8,00.0,36.8,29.6,13.7,0000.0,0008.24,0003.46,0001.65
2022-03-25 07:32:00,,0828.6,5.01,0.00,27.8,26.8,00.0,36.8,29.6,13.7,0000.0,0008.32,0003.47,0001.65
2022-03-25 07:33:00,,0828.6,4.99,0.00,27.8,26.8,00.0,36.8,29.5,13.7,0000.0,0008.40,0003.47,0001.66
2022-03-25 07:34:00,,0828.7,5.01,0.00,27.8,26.8,00.0,36.8,29.5,13.7,0000.0,0008.36,0003.44,0001.65
2022-03-25 07:35:00,,0828.8,5.00,0.00,27.8,26.8,00.0,36.8,29.5,13.8,0000.0,0008.49,0003.49,0001.68
2022-03-25 07:36:00,,0828.7,4.99,0.00,27.8,26.7,00.0,36.8,29.5,14.0,0000.0,0008.60,0003.53,0001.69
2022-03-25 07:37:00,,0828.7,5.02,0.00,27.8,26.8,00.0,36.8,29.5,14.1,0000.0,0008.62,0003.56,0001.69
2022-03-25 07:38:00,,0828.7,5.00,0.00,27.8,26.7,00.0,36.8,29.5,14.2,0000.0,0008.51,0003.51,0001.69
2022-03-25 07:39:00,,0828.7,5.01,0.00,27.7,26.7,00.0,36.8,29.5,14.2,0000.0,0008.48,0003.47,0001.69
2022-03-25 07:40:00,,0828.7,4.99,0.00,27.8,26.7,00.0,36.8,29.5,14.3,0000.0,0008.56,0003.49,0001.68
2022-03-25 07:41:00,,0828.7,4.99,0.00,27.7,26.7,00.0,36.7,29.5,14.4,0000.0,0008.39,0003.47,0001.69
2022-03-25 07:42:00,,0828.7,5.01,0.00,27.7,26.7,00.0,36.7,29.5,14.6,0000.0,0008.43,0003.44,0001.68
2022-03-25 07:43:00,,0828.7,4.99,0.00,27.7,26.7,00.0,36.7,29.5,14.7,0000.0,0008.36,0003.41,0001.66
2022-03-25 07:44:00,,0828.7,5.01,0.00,27.7,26.7,00.0,36.7,29.5,14.7,0000.0,0008.36,0003.36,0001.62
2022-03-25 07:45:00,,0828.8,5.00,0.00,27.7,26.7,00.0,36.7,29.5,14.8,0000.0,0008.64,0003.31,0001.59
2022-03-25 07:46:00,,0829.3,4.99,0.00,27.7,26.7,00.0,36.7,29.5,14.9,0000.0,0008.62,0003.24,0001.53
2022-03-25 07:47:00,,0829.3,5.01,0.00,27.7,26.7,00.0,36.7,29.5,14.9,0000.0,0008.55,0003.22,0001.48
2022-03-25 07:48:00,,0829.0,5.01,0.00,27.7,26.7,00.0,36.7,29.5,14.9,0000.0,0008.37,0003.16,0001.45
2022-03-25 07:49:00,,0828.9,4.99,0.00,27.7,26.7,00.0,36.7,29.5,14.9,0000.0,0008.37,0003.17,0001.46
2022-03-25 07:50:00,,0828.9,4.99,0.00,27.7,26.7,00.0,36.7,29.5,14.9,0000.0,0008.24,0003.15,0001.42
2022-03-25 07:51:00,,0828.9,5.01,0.00,27.7,26.7,00.0,36.7,29.5,14.9,0000.0,0007.96,0002.98,0001.39
2022-03-25 07:52:00,,0829.0,4.99,0.00,27.7,26.7,00.0,36.7,29.5,14.9,0000.0,0007.87,0002.87,0001.34
2022-03-25 07:53:00,,0828.9,4.99,0.00,27.7,26.7,00.0,36.7,29.4,14.9,0000.0,0007.94,0002.97,0001.33
2022-03-25 07:54:00,,0829.0,5.01,0.00,27.7,26.7,00.0,36.7,29.4,15.0,0000.0,0007.95,0002.97,0001.32
2022-03-25 07:55:00,,0829.0,5.01,0.00,27.7,26.7,00.0,36.7,29.4,15.0,0000.0,0007.65,0002.90,0001.30
2022-03-25 07:56:00,,0829.0,5.00,0.00,27.6,26.7,00.0,36.7,29.4,15.0,0000.0,0007.01,0002.91,0001.29
2022-03-25 07:57:00,,0829.0,5.00,0.00,27.6,26.7,00.0,36.7,29.4,15.0,0000.0,0006.61,0002.89,0001.27
2022-03-25 07:58:00,,0829.0,5.00,0.00,27.6,26.6,00.0,36.7,29.4,15.1,0000.0,0006.88,0002.86,0001.26
2022-03-25 07:59:00,,0829.0,4.99,0.00,27.6,26.7,00.0,36.6,29.4,15.1,0000.0,0006.84,0002.84,0001.25
